When you browse on this site, cookies collect data to enhance your experience and personalize the content and advertising you see.
Visit our Privacy Policy to learn more. By continuing to use the site, you agree to this use of cookies and data.
EN

Hourly Weather Beglica

Today, 21 September, Monday

Time Temperature Precipitation Wind Pressure Humidity
00:00 +13°C° 0 mm 5 mps 765 mmHg 49%
01:00 +12°C° 0 mm 5 mps 765 mmHg 51%
02:00 +12°C° 0 mm 5 mps 765 mmHg 53%
03:00 +10°C° 0 mm 5 mps 766 mmHg 55%
04:00 +10°C° 0 mm 4 mps 766 mmHg 56%
05:00 +10°C° 0 mm 4 mps 766 mmHg 57%
06:00 +8°C° 0 mm 4 mps 766 mmHg 59%
07:00 +11°C° 0 mm 4 mps 766 mmHg 53%
08:00 +13°C° 0 mm 4 mps 766 mmHg 47%
09:00 +15°C° 0 mm 4 mps 766 mmHg 41%
10:00 +18°C° 0 mm 3 mps 766 mmHg 36%
11:00 +19°C° 0 mm 3 mps 766 mmHg 32%
12:00 +21°C° 0 mm 3 mps 766 mmHg 27%
13:00 +21°C° 0 mm 3 mps 765 mmHg 25%
14:00 +22°C° 0 mm 3 mps 765 mmHg 22%
15:00 +24°C° 0 mm 2 mps 765 mmHg 20%
16:00 +23°C° 0 mm 2 mps 765 mmHg 22%
17:00 +21°C° 0 mm 2 mps 765 mmHg 24%
18:00 +20°C° 0 mm 2 mps 764 mmHg 26%
19:00 +18°C° 0 mm 2 mps 765 mmHg 28%
20:00 +17°C° 0 mm 2 mps 765 mmHg 30%
21:00 +16°C° 0 mm 3 mps 765 mmHg 32%
22:00 +14°C° 0 mm 3 mps 765 mmHg 32%
23:00 +14°C° 0 mm 3 mps 765 mmHg 33%

Tomorrow, 22 September, Tuesday

Time Temperature Precipitation Wind Pressure Humidity
00:00 +13°C° 0 mm 4 mps 765 mmHg 33%
01:00 +13°C° 0 mm 4 mps 765 mmHg 33%
02:00 +12°C° 0 mm 4 mps 765 mmHg 34%
03:00 +12°C° 0 mm 4 mps 765 mmHg 34%
04:00 +12°C° 0 mm 4 mps 765 mmHg 35%
05:00 +11°C° 0 mm 4 mps 765 mmHg 36%
06:00 +11°C° 0 mm 4 mps 766 mmHg 36%
07:00 +13°C° 0 mm 4 mps 766 mmHg 32%
08:00 +15°C° 0 mm 4 mps 766 mmHg 28%
09:00 +18°C° 0 mm 4 mps 766 mmHg 24%
10:00 +20°C° 0 mm 4 mps 766 mmHg 22%
11:00 +22°C° 0 mm 3 mps 766 mmHg 20%
12:00 +24°C° 0 mm 3 mps 766 mmHg 18%
13:00 +25°C° 0 mm 3 mps 765 mmHg 17%
14:00 +26°C° 0 mm 3 mps 765 mmHg 16%
15:00 +26°C° 0 mm 3 mps 765 mmHg 16%
16:00 +25°C° 0 mm 3 mps 764 mmHg 17%
17:00 +24°C° 0 mm 2 mps 764 mmHg 19%
18:00 +23°C° 0 mm 2 mps 764 mmHg 20%
19:00 +21°C° 0 mm 3 mps 764 mmHg 21%
20:00 +19°C° 0 mm 3 mps 764 mmHg 22%
21:00 +18°C° 0 mm 3 mps 764 mmHg 24%
22:00 +17°C° 0 mm 3 mps 764 mmHg 25%
23:00 +17°C° 0 mm 3 mps 764 mmHg 26%

Day after tomorrow, 23 September, Wednesday

Time Temperature Precipitation Wind Pressure Humidity
00:00 +15°C° 0 mm 4 mps 764 mmHg 27%
01:00 +15°C° 0 mm 4 mps 764 mmHg 28%
02:00 +14°C° 0 mm 4 mps 764 mmHg 30%
03:00 +14°C° 0 mm 4 mps 764 mmHg 31%
04:00 +13°C° 0 mm 4 mps 764 mmHg 32%
05:00 +13°C° 0 mm 4 mps 764 mmHg 34%
06:00 +13°C° 0 mm 4 mps 764 mmHg 35%
07:00 +15°C° 0 mm 4 mps 764 mmHg 32%
08:00 +18°C° 0 mm 4 mps 764 mmHg 28%
09:00 +20°C° 0 mm 5 mps 764 mmHg 25%
10:00 +22°C° 0 mm 5 mps 763 mmHg 24%
11:00 +25°C° 0 mm 5 mps 763 mmHg 23%
12:00 +27°C° 0 mm 5 mps 763 mmHg 22%
13:00 +28°C° 0 mm 5 mps 762 mmHg 21%
14:00 +29°C° 0 mm 5 mps 762 mmHg 20%
15:00 +29°C° 0 mm 5 mps 761 mmHg 19%
16:00 +28°C° 0 mm 4 mps 761 mmHg 21%
17:00 +27°C° 0 mm 4 mps 761 mmHg 22%
18:00 +26°C° 0 mm 4 mps 760 mmHg 24%
19:00 +25°C° 0 mm 4 mps 761 mmHg 27%
20:00 +22°C° 0 mm 4 mps 761 mmHg 29%
21:00 +21°C° 0 mm 4 mps 761 mmHg 32%
22:00 +20°C° 0 mm 4 mps 761 mmHg 34%
23:00 +19°C° 0 mm 5 mps 761 mmHg 36%

24 September, Thursday

Time Temperature Precipitation Wind Pressure Humidity
00:00 +17°C° 0 mm 5 mps 760 mmHg 38%
01:00 +17°C° 0 mm 5 mps 760 mmHg 40%
02:00 +16°C° 0 mm 5 mps 760 mmHg 41%
03:00 +16°C° 0 mm 5 mps 760 mmHg 42%
04:00 +15°C° 0 mm 5 mps 760 mmHg 43%
05:00 +15°C° 0 mm 5 mps 760 mmHg 44%
06:00 +15°C° 0 mm 5 mps 761 mmHg 45%
07:00 +16°C° 0 mm 6 mps 760 mmHg 41%
08:00 +19°C° 0 mm 6 mps 760 mmHg 38%
09:00 +21°C° 0 mm 7 mps 760 mmHg 35%
10:00 +22°C° 0 mm 7 mps 760 mmHg 33%
11:00 +24°C° 0 mm 7 mps 760 mmHg 31%
12:00 +27°C° 0 mm 7 mps 760 mmHg 30%
13:00 +27°C° 0 mm 6 mps 760 mmHg 30%
14:00 +28°C° 0 mm 6 mps 760 mmHg 30%
15:00 +29°C° 0 mm 6 mps 759 mmHg 31%
16:00 +28°C° 0 mm 6 mps 759 mmHg 32%
17:00 +27°C° 0 mm 6 mps 759 mmHg 33%
18:00 +27°C° 0 mm 5 mps 759 mmHg 35%
19:00 +26°C° 0 mm 6 mps 759 mmHg 36%
20:00 +24°C° 0 mm 6 mps 759 mmHg 38%
21:00 +23°C° 0 mm 6 mps 759 mmHg 39%
22:00 +22°C° 0 mm 6 mps 759 mmHg 39%
23:00 +21°C° 0 mm 6 mps 759 mmHg 40%

25 September, Friday

Time Temperature Precipitation Wind Pressure Humidity
00:00 +20°C° 0 mm 6 mps 759 mmHg 41%
01:00 +20°C° 0 mm 5 mps 759 mmHg 42%
02:00 +19°C° 0 mm 5 mps 759 mmHg 44%
03:00 +19°C° 0 mm 5 mps 759 mmHg 45%
04:00 +17°C° 0 mm 6 mps 759 mmHg 46%
05:00 +17°C° 0 mm 6 mps 759 mmHg 48%
06:00 +17°C° 0 mm 7 mps 759 mmHg 49%
07:00 +18°C° 0 mm 7 mps 759 mmHg 46%
08:00 +20°C° 0 mm 7 mps 759 mmHg 43%
09:00 +21°C° 0 mm 8 mps 759 mmHg 41%
10:00 +23°C° 0 mm 8 mps 759 mmHg 37%
11:00 +26°C° 0 mm 7 mps 759 mmHg 33%
12:00 +27°C° 0 mm 7 mps 759 mmHg 29%
13:00 +28°C° 0 mm 7 mps 758 mmHg 27%
14:00 +29°C° 0 mm 7 mps 758 mmHg 26%
15:00 +30°C° 0 mm 6 mps 758 mmHg 24%
16:00 +29°C° 0 mm 6 mps 758 mmHg 25%
17:00 +28°C° 0 mm 6 mps 758 mmHg 26%
18:00 +28°C° 0 mm 5 mps 758 mmHg 27%
19:00 +27°C° 0 mm 6 mps 758 mmHg 28%
20:00 +26°C° 0 mm 6 mps 758 mmHg 29%
21:00 +23°C° 0 mm 7 mps 758 mmHg 30%
22:00 +23°C° 0 mm 7 mps 758 mmHg 31%
23:00 +23°C° 0 mm 7 mps 758 mmHg 32%

26 September, Saturday

Time Temperature Precipitation Wind Pressure Humidity
00:00 +22°C° 0 mm 7 mps 758 mmHg 34%
01:00 +21°C° 0 mm 7 mps 758 mmHg 35%
02:00 +21°C° 0 mm 6 mps 758 mmHg 36%
03:00 +20°C° 0 mm 6 mps 758 mmHg 38%
04:00 +19°C° 0 mm 6 mps 758 mmHg 39%
05:00 +18°C° 0 mm 7 mps 758 mmHg 41%
06:00 +17°C° 0 mm 7 mps 758 mmHg 43%
07:00 +18°C° 0 mm 7 mps 758 mmHg 42%
08:00 +20°C° 0 mm 7 mps 758 mmHg 40%
09:00 +21°C° 0 mm 8 mps 758 mmHg 39%
10:00 +23°C° 0 mm 8 mps 758 mmHg 34%
11:00 +26°C° 0 mm 8 mps 758 mmHg 30%
12:00 +28°C° 0 mm 8 mps 758 mmHg 25%
13:00 +29°C° 0 mm 8 mps 758 mmHg 24%
14:00 +31°C° 0 mm 8 mps 758 mmHg 22%
15:00 +32°C° 0 mm 8 mps 757 mmHg 20%
16:00 +30°C° 0 mm 7 mps 757 mmHg 23%
17:00 +29°C° 0 mm 7 mps 757 mmHg 25%
18:00 +28°C° 0 mm 7 mps 757 mmHg 27%
19:00 +27°C° 0 mm 8 mps 758 mmHg 30%
20:00 +26°C° 0 mm 8 mps 758 mmHg 32%
21:00 +24°C° 0 mm 9 mps 758 mmHg 34%
22:00 +23°C° 0 mm 9 mps 758 mmHg 37%
23:00 +22°C° 0 mm 9 mps 758 mmHg 39%
Show more